{"data":{"norad_id":63380,"intl_designator":"2025-063T","name":"STARLINK-33653","alt_names":[],"object_type":"PAYLOAD","status":"ACTIVE","operator":null,"country":"US","launch_date":"2025-03-26","launch_site_code":"AFWTR","launch_vehicle":null,"mission":null,"orbit_class":"UNKNOWN","rcs_meters":null,"size_class":null,"mass_kg":null,"dimensions":null,"purposes":["comms"],"wikipedia_slug":null,"has_3d_model":false,"image_url":null,"decayed_at":null,"tle_current":{"epoch":"2026-09-20T22:07:48.348768Z","epoch_age_seconds":122387,"freshness":"FRESH","line1":"1 63380U 25063T   26263.92208737  .00011637  00000+0  38602-3 0  9992","line2":"2 63380  53.1551 224.6886 0001638  92.3152 267.8037 15.31712673 84616","mean_motion":15.31712673,"eccentricity":0.0001638,"inclination_deg":53.1551,"raan_deg":224.6886,"arg_perigee_deg":92.3152,"mean_anomaly_deg":267.8037,"bstar":0.00038602,"rev_number":8461,"period_min":94.012410119949,"perigee_km":469.58037806867,"apogee_km":471.82405779646,"semimajor_km":6848.8392179326,"source":"CELESTRAK","updated_at":"2026-09-21T09:00:34.975625Z"}}}